CW4828 Weather Reports


Display with metric or nautical units.
time (UTC)temp
F
wind
direction
speed
MPH
gust
MPH
rain 1hr
in
rain 24hr
in
rain mn
in
humidity
%
barometer
mb
20260510204607 87 257 1.0 6.0 0.00 0.40 0.40 68 1015.6
20260510203056 86 254 2.0 4.0 0.00 0.40 0.40 66 1015.5
20260510201553 85 268 1.0 4.0 0.00 0.40 0.40 68 1015.7
20260510200115 85 270 1.0 6.0 0.00 0.40 0.40 70 1015.4
20260510194559 84 258 2.0 6.0 0.00 0.40 0.40 74 1015.5
20260510193104 83 271 1.0 5.0 0.04 0.40 0.40 76 1015.6
20260510191601 80 279 1.0 2.0 0.10 0.40 0.40 82 1015.8
20260510190053 77 279 0.0 4.0 0.35 0.40 0.40 85 1015.7
20260510184558 76 312 0.0 6.0 0.40 0.40 0.40 83 1016.1
20260510183057 76 251 1.0 8.0 0.36 0.36 0.36 83 1016.6
20260510181552 76 210 4.0 16.0 0.30 0.30 0.30 79 1016.8
20260510180056 85 275 7.0 12.0 0.05 0.05 0.05 70 1016.5
20260510174553 89 348 3.0 6.0 0.00 0.00 0.00 60 1015.8
20260510173105 90 0 1.0 5.0 0.00 0.00 0.00 59 1016.0
20260510171559 89 342 2.0 5.0 0.00 0.00 0.00 60 1016.2
20260510170109 89 352 2.0 5.0 0.00 0.00 0.00 61 1016.5
20260510164556 90 359 1.0 5.0 0.00 0.00 0.00 59 1016.7
20260510163055 90 345 3.0 6.0 0.00 0.00 0.00 59 1017.1
20260510161555 90 166 1.0 3.0 0.00 0.00 0.00 60 1017.2
20260510160055 89 257 1.0 4.0 0.00 0.00 0.00 60 1017.1
20260510154559 91 220 2.0 6.0 0.00 0.00 0.00 61 1017.2
20260510153057 90 197 2.0 5.0 0.00 0.00 0.00 61 1017.0
20260510151602 89 236 2.0 6.0 0.00 0.00 0.00 63 1017.1
20260510150058 87 230 2.0 6.0 0.00 0.00 0.00 66 1017.2
20260510144554 86 200 2.0 6.0 0.00 0.00 0.00 68 1016.9
20260510143055 85 111 2.0 5.0 0.00 0.00 0.00 71 1016.9
20260510141602 82 218 1.0 5.0 0.00 0.00 0.00 75 1016.8
20260510140056 80 260 1.0 5.0 0.00 0.00 0.00 78 1017.1
20260510134606 80 250 0.0 3.0 0.00 0.00 0.00 80 1016.9
20260510133110 79 0 0.0 3.0 0.00 0.00 0.00 81 1016.9
20260510131603 79 0 1.0 3.0 0.00 0.00 0.00 81 1016.8
20260510130057 78 216 0.0 3.0 0.00 0.00 0.00 82 1016.5
20260510124600 77 0 1.0 4.0 0.00 0.00 0.00 83 1016.3
20260510123110 77 229 0.0 3.0 0.00 0.00 0.00 84 1016.3
20260510121554 77 213 0.0 5.0 0.00 0.00 0.00 85 1016.0
20260510120106 76 233 0.0 5.0 0.00 0.00 0.00 85 1015.9
20260510114607 76 0 0.0 4.0 0.00 0.00 0.00 86 1015.5
20260510113100 75 234 1.0 4.0 0.00 0.00 0.00 86 1015.3
20260510111559 75 216 1.0 3.0 0.00 0.00 0.00 86 1015.1
20260510110052 75 221 0.0 2.0 0.00 0.00 0.00 87 1014.9
20260510104554 75 0 0.0 2.0 0.00 0.00 0.00 87 1014.7
20260510103058 75 0 0.0 2.0 0.00 0.00 0.00 87 1014.5
20260510101555 75 0 0.0 3.0 0.00 0.00 0.00 86 1014.3
20260510100055 75 0 0.0 3.0 0.00 0.00 0.00 85 1014.1
20260510094553 76 152 0.0 4.0 0.00 0.00 0.00 85 1014.0
20260510093055 76 180 1.0 4.0 0.00 0.00 0.00 85 1014.0
20260510091558 75 207 1.0 6.0 0.00 0.00 0.00 85 1013.8
20260510090059 75 0 0.0 4.0 0.00 0.00 0.00 86 1013.9
20260510084557 75 107 1.0 3.0 0.00 0.00 0.00 86 1013.6
20260510083056 75 0 1.0 4.0 0.00 0.00 0.00 86 1013.4
20260510081556 75 200 0.0 3.0 0.00 0.00 0.00 87 1013.4
20260510080056 75 205 1.0 4.0 0.00 0.00 0.00 87 1013.6
20260510074557 75 197 1.0 3.0 0.00 0.00 0.00 87 1013.8
20260510073106 75 0 1.0 4.0 0.00 0.00 0.00 87 1013.8
20260510071604 74 0 1.0 3.0 0.00 0.00 0.00 86 1014.1
20260510070054 74 0 0.0 3.0 0.00 0.00 0.00 86 1014.1
20260510064600 74 0 0.0 1.0 0.00 0.00 0.00 86 1014.3
20260510063101 74 0 0.0 3.0 0.00 0.00 0.00 85 1014.3
20260510061555 74 0 0.0 2.0 0.00 0.00 0.00 85 1014.7
20260510060055 74 0 0.0 4.0 0.00 0.00 0.00 85 1014.7
20260510054554 74 0 0.0 4.0 0.00 0.00 0.00 86 1014.7
20260510053053 74 0 0.0 0.0 0.00 0.00 0.00 85 1014.9
20260510051558 75 0 0.0 0.0 0.00 0.00 0.00 85 1015.0
20260510050115 75 0 0.0 0.0 0.00 0.00 0.00 85 1015.3
20260510044610 75 0 0.0 0.0 0.00 0.00 0.00 84 1015.4
20260510043110 75 0 0.0 0.0 0.00 0.00 0.00 84 1015.3
20260510041559 75 0 0.0 2.0 0.00 0.00 0.00 84 1015.2
20260510040115 75 0 0.0 0.0 0.00 0.00 0.00 83 1015.5
20260510034620 76 0 0.0 0.0 0.00 0.00 0.00 83 1015.4
20260510033115 76 0 0.0 0.0 0.00 0.00 0.00 82 1015.4
20260510031610 76 0 0.0 0.0 0.00 0.00 0.00 81 1015.1
20260510030108 76 0 0.0 1.0 0.00 0.00 0.00 80 1015.1
20260510024601 76 77 0.0 3.0 0.00 0.00 0.00 79 1015.2
20260510023100 77 77 1.0 3.0 0.00 0.00 0.00 79 1015.1
20260510021604 77 75 1.0 3.0 0.00 0.00 0.00 79 1015.1
20260510020059 77 0 0.0 2.0 0.00 0.00 0.00 78 1015.0
20260510014621 78 71 0.0 3.0 0.00 0.00 0.00 78 1014.9
20260510013055 78 78 1.0 4.0 0.00 0.00 0.00 78 1014.7
20260510011555 78 72 2.0 6.0 0.00 0.00 0.00 78 1014.5
20260510010051 78 68 2.0 6.0 0.00 0.00 0.00 81 1014.6
20260510004556 78 84 2.0 5.0 0.00 0.00 0.00 81 1014.4
20260510003103 79 91 2.0 6.0 0.00 0.00 0.00 80 1013.9
20260510001557 79 58 0.0 4.0 0.00 0.00 0.00 79 1013.7
20260510000055 80 105 2.0 7.0 0.00 0.00 0.00 79 1013.5
20260509234552 80 27 2.0 6.0 0.00 0.00 0.00 78 1013.4
20260509233055 80 101 2.0 7.0 0.00 0.00 0.00 78 1013.2
20260509231554 81 15 2.0 9.0 0.00 0.00 0.00 77 1013.2
20260509230056 81 63 4.0 11.0 0.00 0.00 0.00 76 1013.1
20260509224600 83 92 3.0 11.0 0.00 0.00 0.00 74 1012.7
20260509223104 85 2 5.0 11.0 0.00 0.00 0.00 70 1012.4
20260509221605 87 359 4.0 7.0 0.00 0.00 0.00 65 1012.1
20260509220057 87 1 2.0 6.0 0.00 0.00 0.00 64 1011.9
20260509214607 87 349 2.0 7.0 0.00 0.00 0.00 64 1011.8
20260509213053 87 360 4.0 7.0 0.00 0.00 0.00 65 1011.8
20260509211558 86 359 3.0 6.0 0.00 0.00 0.00 67 1011.6
20260509210114 85 327 3.0 6.0 0.00 0.00 0.00 67 1011.7